Location: Proctor
(47.8934°N, 114.3048°W)
Time: 08:31:46
(UTC+00:00)

CUBESAT XI-V - Visible Passes

Search period start: 27 June 2022 00:00
Search period end: 07 July 2022 00:00
Orbit: 666 x 692 km, 98.1° (Epoch: 27 June)

Date Brightness Start Highest point End Pass type
(mag) Time Alt. Az. Time Alt. Az. Time Alt. Az.
27 Jun ? 08:46:02 15° SE 08:49:39 50° ENE 08:54:06 10° N visible
27 Jun ? 10:24:25 13° SW 10:27:12 21° W 10:30:40 10° NW visible
28 Jun ? 07:45:44 10° E 07:48:24 15° ENE 07:51:04 10° NNE visible
28 Jun ? 09:21:59 20° S 09:25:06 77° WSW 09:29:44 10° NNW visible
29 Jun ? 08:19:35 10° SE 08:23:33 29° ENE 08:27:32 10° N visible
29 Jun ? 09:57:56 18° SSW 10:00:45 35° W 10:04:59 10° NNW visible
30 Jun ? 08:55:29 17° SSE 08:58:53 61° ENE 09:03:25 10° N visible
30 Jun ? 10:33:53 11° SW 10:36:34 17° W 10:39:35 10° NW visible
01 Jul ? 07:54:27 10° ESE 07:57:33 18° ENE 08:00:39 10° NNE visible
01 Jul ? 09:31:26 21° S 09:34:23 63° WSW 09:38:58 10° NNW visible
02 Jul ? 08:28:59 12° SE 08:32:44 35° ENE 08:36:55 10° N visible
02 Jul ? 10:07:23 17° SW 10:10:04 29° W 10:14:05 10° NW visible
03 Jul ? 07:30:20 10° ENE 07:31:39 11° NE 07:32:57 10° NE visible
03 Jul ? 09:04:56 20° SSE 09:08:07 74° ENE 09:12:42 10° N visible
03 Jul ? 10:43:33 10° WSW 10:45:56 14° W 10:48:20 10° WNW visible
04 Jul ? 08:03:15 10° ESE 08:06:42 21° ENE 08:10:09 10° NNE visible
04 Jul ? 09:40:54 22° SSW 09:43:40 51° W 09:48:09 10° NNW visible
05 Jul ? 08:38:27 15° SE 08:41:56 42° ENE 08:46:16 10° N visible
05 Jul ? 10:16:51 16° SW 10:19:23 24° W 10:23:08 10° NW visible
06 Jul ? 07:38:36 10° E 07:40:45 13° ENE 07:42:55 10° NNE visible
06 Jul ? 09:14:24 22° SSE 09:17:21 89° E 09:21:58 10° NNW visible
06 Jul ? 10:53:54 10° WSW 10:55:18 11° W 10:56:42 10° WNW visible
